• Join FlightAware (Why Join?)
  • Login
  • US Flag 
07:33PM EDT


 

Airport Tracker/Info


-or-


 

Live Flight TrackerFlight Track Log ✈ SKW6440 ✈ 26-Apr-2013 ✈ KLAX - KFAT

Flight Track Log - Related Links

Times and Time Zones

All times are in EDT time to prevent confusion due to time zone crossing. See the SKW6440 flight status page for this flight to view local times or setup timezone preferences in your user account.

Time Position Orientation Groundspeed Altitude Reporting Facility
EDT Latitude Longitude Course Direction KTS MPH feet Rate Location/Type
01:38AM 33.9333 -118.4533 262° West 171 197 1,600  Level Los Angeles Center
01:39AM 33.9250 -118.5250 262° West 215 247 3,900 2,280 Climbing Los Angeles Center
01:40AM 33.9111 -118.6114 259° West 262 302 6,300 2,400 Climbing Los Angeles Center
01:41AM 33.8978 -118.7053 260° West 284 327 8,800 2,100 Climbing Los Angeles Center
01:42AM 33.9031 -118.7933 274° West 298 343 10,600 1,320 Climbing Los Angeles Center
01:43AM 33.9183 -118.9011 280° West 332 382 11,600 1,620 Climbing Los Angeles Center
01:44AM 33.9564 -119.0331 289° West 355 409 13,900 1,800 Climbing Los Angeles Center
01:45AM 34.0397 -119.0922 330° Northwest 347 399 15,300 1,320 Climbing Los Angeles Center
01:46AM 34.1278 -119.1508 331° Northwest 361 415 16,700 1,260 Climbing Los Angeles Center
01:47AM 34.2214 -119.1944 339° North 361 415 17,900 1,260 Climbing Los Angeles Center
01:48AM 34.3194 -119.2236 346° North 362 417 19,300 1,020 Climbing Los Angeles Center
01:49AM 34.4183 -119.2547 345° North 366 421 20,000 300 Climbing Los Angeles Center
01:50AM 34.5278 -119.2597 358° North 399 459 20,000  Level Los Angeles Center
01:51AM 34.6686 -119.2383 North 391 450 20,000  Level Los Angeles Center
01:52AM 34.7739 -119.2194 North 385 443 20,000  Level Los Angeles Center
01:53AM 34.8797 -119.2025 North 384 442 20,000  Level Los Angeles Center
01:54AM 34.9853 -119.1864 North 385 443 20,000  Level Los Angeles Center
01:55AM 35.0911 -119.1906 358° North 386 444 20,000  Level Los Angeles Center
01:56AM 35.1939 -119.2247 345° North 383 441 20,000  Level Los Angeles Center
01:57AM 35.2972 -119.2578 345° North 385 443 20,000  Level Los Angeles Center
01:58AM 35.4022 -119.2886 347° North 388 447 20,000  Level Los Angeles Center
01:59AM 35.5064 -119.3208 346° North 387 445 20,000  Level Los Angeles Center
02:00AM 35.6108 -119.3531 346° North 389 448 20,000  Level Los Angeles Center
02:01AM 35.7150 -119.3861 346° North 388 447 20,000 -60 Level Los Angeles Center
02:02AM 35.8197 -119.4192 346° North 388 447 19,900 -900 Descending Los Angeles Center
02:03AM 35.9253 -119.4517 346° North 391 450 18,200 -2,160 Descending Los Angeles Center
02:04AM 36.0414 -119.4828 348° North 366 421 15,500 -2,700 Descending Oakland Center
02:05AM 36.1353 -119.5103 347° North 350 403 12,700 -2,280 Descending Oakland Center
02:07AM 36.2244 -119.5342 348° North 330 380 11,000 -1,440 Descending Oakland Center
02:08AM 36.3014 -119.5525 349° North 285 328 9,800 -1,440 Descending Oakland Center
02:09AM 36.3781 -119.5714 349° North 282 325 8,200 -1,500 Descending Oakland Center
02:10AM 36.4525 -119.5833 353° North 271 312 6,800 -1,140 Descending Oakland Center
02:11AM 36.5203 -119.5936 353° North 249 287 6,000 -900 Descending Oakland Center
02:12AM 36.5781 -119.6019 353° North 212 244 5,100 -1,020 Descending Oakland Center
02:13AM 36.6361 -119.6103 353° North 210 242 4,000 -960 Descending Oakland Center
02:14AM 36.6908 -119.6269 346° North 201 231 3,200 -1,140 Descending Oakland Center
02:15AM 36.7294 -119.6483 336° Northwest 155 178 1,800 -1,200 Descending Oakland Center
02:16AM 36.7567 -119.6850 313° West 136 157 900 -780 Descending Oakland Center
02:17AM 36.7744 -119.7156 306° West 130 150 300 -600 Descending Oakland Center
02:19AM 36.7667 -119.7167 349° North  Level FlightAware Approximate